Main page
METAR-TAF:

METAR-TAF

Airports :

Ismailia Air Base

Ismaïlia, Egypt

latitude: 30-35-54N, longitude: 032-14-13E, elevation: 13 m

Current weather observation

The report was made 2 hours and 31 minutes ago, at 16:00 UTC
Wind 10 kt from the North
Temperature 23°C
Humidity 53%
Pressure 1019 hPa
Visibility 10 km or more
no clouds below 1500 m and no cumulonimbus

METAR: HEIS 211600Z 01010KT CAVOK 23/13 Q1019

Time: 20:31 (18:31 UTC)


TAF: missing

Weather observations and forecasts of more than 4000 airports (METAR and TAF reports).

The available stations are represented by yellow and red dots on the map.

Hover mouse over dot to see the name of the station.

Then click to see weather observations and forecasts.

To change the map : click on the green buttons with a black cross to zoom in, on the green button with a dash to zoom out, or on the green arrows for adjacent maps.


METAR-TAF: